Find Starlink 11201

NORAD ID: 60113 Int'l Des: 2024-118 Owner: SPXS Country: US Constellation: starlink operational
又名: STARLINK-11201 [DTC] celestrak
LEOCIRCULAR

当前视图

正在加载3D地球...

About Starlink 11201

Starlink 11201 (NORAD 60113) is a starlink constellation satellite (v2 mini d2c) launched Jun 24, 2024 by SPXS of US. It operates in LEO, CIRCULAR orbit with a mass of 960.00 kg.

即将过境

Passes for default location (London). Set your location on the main map for personalized predictions.

高度历史

Loading altitude history...

两行轨道根数

1 60113U 24118A 26265.45730056 -.00000316 00000-0 22526-5 0 9991
2 60113 53.1597 331.5837 0001168 71.4551 288.6594 15.69709874128898
Epoch: Sep 22, 2026 • Age: 17 hours

当前状态

高度 376.7 km
远地点 / 近地点 N/A
速度 7.68 km/s
星下点 -47.86°S, 141.69°W
发射日期 Jun 24, 2024
运行时间 2.2 years
类型 internet

技术详情

分类 Payload
质量 960.00 kg
干质量 910.00 kg
长度 0.30 m
跨度 29.00 m
形状 ? Box + pan
制造商 SPXS
平台类型 Starlink V2MD
阶段状态 In Orbit
所有者/国家 SPXS/US

Most Searched